Location: St. Louis
(38.6270°N, 90.1994°W)
Time: 12:02:17
(UTC-06:00)

A-11 Canister half - Pass Details

Date: 07 December 2021
Orbit: 1524 x 1684 km, 47.3° (Epoch: 25 January)

Event Time Altitude Azimuth Distance (km) Brightness Sun altitude
Rises 23:50:24 0° 224° (SW) 4,896 - -74.0°
Reaches altitude 10° 23:53:33 10° 221° (SW) 3,922 - -74.0°
Maximum altitude 00:03:33 69° 141° (SE) 1,784 - -73.8°
Drops below altitude 10° 00:13:35 10° 61° (ENE) 3,934 - -73.4°
Sets 00:16:44 0° 60° (ENE) 4,912 - -73.2°
